This is the latest recevied weather packets stored in our database for station/object KD5FHA. If no packets are shown the sender has not sent any weather packets the latest 10 day(s).
| Time | Temp. | Humidity | Pressure | Rain* | Wind** | Luminosity | Snow |
|---|---|---|---|---|---|---|---|
| 1777857750 | 22.78° C | 45% | 1016.7 hPa | 0 mm | - | 1 W/m² | - |
| 1777857446 | 22.78° C | 44% | 1016.5 hPa | 0 mm | - | 2 W/m² | - |
| 1777857143 | 22.78° C | 44% | 1016.3 hPa | 0 mm | - | 3 W/m² | - |
| 1777856839 | 23.33° C | 43% | 1016.6 hPa | 0 mm | - | 5 W/m² | - |
| 1777856535 | 23.33° C | 43% | 1016.6 hPa | 0 mm | - | 9 W/m² | - |
| 1777856232 | 23.33° C | 42% | 1016.5 hPa | 0 mm | - | 11 W/m² | - |
| 1777855929 | 23.89° C | 42% | 1016.7 hPa | 0 mm | - | 12 W/m² | - |
| 1777855627 | 23.89° C | 41% | 1016.6 hPa | 0 mm | - | 14 W/m² | - |
| 1777855323 | 23.89° C | 42% | 1016.5 hPa | 0 mm | - | 16 W/m² | - |
| 1777855020 | 23.89° C | 41% | 1016.6 hPa | 0 mm | - | 21 W/m² | - |
| 1777854717 | 24.44° C | 41% | 1016.6 hPa | 0 mm | - | 29 W/m² | - |
| 1777854413 | 24.44° C | 40% | 1016.6 hPa | 0 mm | - | 38 W/m² | - |
| 1777854111 | 25° C | 39% | 1016.6 hPa | 0 mm | - | 49 W/m² | - |
| 1777853809 | 25° C | 39% | 1016.7 hPa | 0 mm | - | 50 W/m² | - |
| 1777853504 | 25° C | 39% | 1016.7 hPa | 0 mm | - | 65 W/m² | - |
| 1777853202 | 25.56° C | 38% | 1016.7 hPa | 0 mm | - | 74 W/m² | - |
| 1777852899 | 25.56° C | 38% | 1016.7 hPa | 0 mm | - | 76 W/m² | - |
| 1777852597 | 25.56° C | 39% | 1016.9 hPa | 0 mm | - | 110 W/m² | - |
| 1777852293 | 25.56° C | 37% | 1016.8 hPa | 0 mm | - | 146 W/m² | - |
| 1777851992 | 25.56° C | 37% | 1016.8 hPa | 0 mm | - | 65 W/m² | - |
| 1777851689 | 25.56° C | 36% | 1016.9 hPa | 0 mm | - | 113 W/m² | - |
| 1777851386 | 26.11° C | 36% | 1016.8 hPa | 0 mm | - | 97 W/m² | - |
| 1777851082 | 26.11° C | 36% | 1017 hPa | 0 mm | - | 204 W/m² | - |
| 1777850779 | 26.11° C | 36% | 1017 hPa | 0 mm | - | 175 W/m² | - |
| 1777850476 | 26.67° C | 35% | 1017.2 hPa | 0 mm | - | 229 W/m² | - |
* Rain latest hour (hover to see other rain measurements)
** Current wind speed in m/s (hover to see current wind gust speed)